Tokyo, Japan

2:05 AM JST on December 14, 2017 (GMT +0900)
Tokyo (Haneda) International

Weather History for RJTT - October, 2017

Change the Weather History Date:

Friday, October 13, 2017

  Actual Average Record
Temperature  
Mean Temperature 64 °F -  
Max Temperature 68 °F 64 °F 80 °F (1999)
Min Temperature 59 °F 55 °F 55 °F (1997)
Degree Days  
Heating Degree Days 2    
Growing Degree Days 14 (Base 50)    
Moisture  
Dew Point 60 °F    
Average Humidity 93    
Maximum Humidity 100    
Minimum Humidity 83    
Precipitation  
Precipitation 0.00 in - - ()
Sea Level Pressure  
Sea Level Pressure 30.05 in    
Wind  
Wind Speed 13 mph ()    
Max Wind Speed 20 mph    
Max Gust Speed -    
Visibility 5.2 miles    
Events Rain    
Averages and records for this station are not official NWS values.
T = Trace of Precipitation, MM = Missing Value Source: Averaged Metar Reports

Daily Weather History Graph

Daily Weather History Graph

Search for Another Location

Airport or City:

Trip Planner

Search our weather history database for the weather conditions in past years. The results will help you decide how hot, cold, wet, or windy it might be!

Date:

Astronomy

Oct. 13, 2017 Rise Set
Actual Time 5:45 AM JST 5:08 PM JST
Civil Twilight 5:19 AM JST 5:34 PM JST
Nautical Twilight 4:50 AM JST 6:03 PM JST
Astronomical Twilight 4:20 AM JST 6:33 PM JST
Moon 11:45 PM JST 1:07 PM JST
Length of Visible Light 12h 14m
Length of Day
11h 23m
Last Quarter, 43% of the Moon is Illuminated
Oct 13
Last Quarter
Oct 20
New
Oct 28
First Quarter
Nov 4
Full
Nov 11
Last Quarter

Hourly Weather History & Observations

Time (JST) Temp. Dew Point Humidity Pressure Visibility Wind Dir Wind Speed Gust Speed Precip Events Conditions
12:00 AM 68.0 °F 64.4 °F 88% 29.92 in 6.2 mi North 10.4 mph - N/A   Partly Cloudy
12:30 AM 68.0 °F 64.4 °F 88% 29.92 in 6.2 mi North 10.4 mph - N/A   Scattered Clouds
1:00 AM 68.0 °F 64.4 °F 88% 29.95 in 6.2 mi North 13.8 mph - N/A   Mostly Cloudy
1:30 AM 68.0 °F 62.6 °F 83% 29.95 in 6.2 mi NNE 16.1 mph - N/A   Mostly Cloudy
2:00 AM 68.0 °F 62.6 °F 83% 29.92 in 6.2 mi NNE 16.1 mph - N/A   Scattered Clouds
2:30 AM 68.0 °F 62.6 °F 83% 29.95 in 6.2 mi NNE 13.8 mph - N/A   Mostly Cloudy
3:00 AM 66.2 °F 62.6 °F 88% 29.95 in 6.2 mi NE 16.1 mph - N/A   Mostly Cloudy
3:30 AM 66.2 °F 62.6 °F 88% 29.95 in 6.2 mi NE 16.1 mph - N/A   Mostly Cloudy
4:00 AM 66.2 °F 62.6 °F 88% 29.95 in 6.2 mi NE 16.1 mph - N/A   Mostly Cloudy
4:30 AM 66.2 °F 60.8 °F 83% 29.98 in 6.2 mi NE 16.1 mph - N/A   Mostly Cloudy
5:00 AM 64.4 °F 60.8 °F 88% 29.98 in 6.2 mi NE 17.3 mph - N/A   Mostly Cloudy
5:30 AM 64.4 °F 60.8 °F 88% 29.98 in 6.2 mi NE 19.6 mph - N/A   Mostly Cloudy
6:00 AM 64.4 °F 60.8 °F 88% 30.01 in 6.2 mi NE 18.4 mph - N/A   Mostly Cloudy
6:30 AM 64.4 °F 60.8 °F 88% 30.01 in 6.2 mi NNE 19.6 mph - N/A Rain Light Rain Showers
6:44 AM 62.6 °F 59.0 °F 88% 30.01 in 6.2 mi NNE 19.6 mph - N/A Rain Light Rain
7:00 AM 62.6 °F 59.0 °F 88% 30.04 in 6.2 mi North 16.1 mph - N/A Rain Light Rain
7:30 AM 62.6 °F 60.8 °F 94% 30.04 in 5.0 mi North 16.1 mph - N/A Rain Light Rain
7:45 AM 60.8 °F 59.0 °F 94% 30.06 in 3.1 mi NNE 17.3 mph - N/A Rain Light Rain
8:00 AM 60.8 °F 59.0 °F 94% 30.06 in 3.1 mi NNE 16.1 mph - N/A Rain Light Rain
8:09 AM 60.8 °F 59.0 °F 94% 30.06 in 3.1 mi NNE 17.3 mph - N/A Rain Light Rain
8:26 AM 60.8 °F 59.0 °F 94% 30.06 in 2.8 mi NNE 18.4 mph - N/A Rain Light Rain
8:30 AM 60.8 °F 59.0 °F 94% 30.06 in 2.8 mi NNE 17.3 mph - N/A Rain Light Rain
8:47 AM 60.8 °F 59.0 °F 94% 30.06 in 3.7 mi NNE 16.1 mph - N/A Rain Light Rain
9:00 AM 60.8 °F 59.0 °F 94% 30.06 in 3.1 mi NNE 17.3 mph - N/A Rain Light Rain
9:30 AM 60.8 °F 59.0 °F 94% 30.06 in 2.8 mi NNE 11.5 mph - N/A Rain Light Rain
10:00 AM 60.8 °F 60.8 °F 100% 30.06 in 3.1 mi NNE 12.7 mph - N/A Rain Light Rain
10:09 AM 60.8 °F 60.8 °F 100% 30.06 in 4.3 mi NNE 12.7 mph - N/A Rain Light Rain
10:30 AM 60.8 °F 60.8 °F 100% 30.06 in 4.3 mi NE 13.8 mph - N/A Rain Light Rain
11:00 AM 60.8 °F 60.8 °F 100% 30.06 in 5.0 mi NE 19.6 mph - N/A Rain Light Rain
11:13 AM 60.8 °F 60.8 °F 100% 30.06 in 3.1 mi NNE 17.3 mph - N/A Rain Light Rain
11:30 AM 60.8 °F 60.8 °F 100% 30.06 in 3.1 mi NNE 13.8 mph - N/A Rain Light Rain
11:43 AM 60.8 °F 60.8 °F 100% 30.06 in 4.3 mi NNE 13.8 mph - N/A Rain Light Rain
12:00 PM 60.8 °F 60.8 °F 100% 30.06 in 6.2 mi NE 16.1 mph - N/A Rain Light Rain
12:30 PM 60.8 °F 59.0 °F 94% 30.06 in 5.6 mi NNE 16.1 mph - N/A Rain Light Rain
1:00 PM 60.8 °F 59.0 °F 94% 30.06 in 2.5 mi NNE 12.7 mph - N/A Rain Light Rain
1:14 PM 60.8 °F 59.0 °F 94% 30.06 in 5.0 mi NNE 11.5 mph - N/A Rain Light Rain
1:30 PM 60.8 °F 59.0 °F 94% 30.06 in 6.2 mi NNE 12.7 mph - N/A Rain Light Rain
2:00 PM 60.8 °F 59.0 °F 94% 30.06 in 6.2 mi NNE 16.1 mph - N/A Rain Light Rain
2:18 PM 60.8 °F 59.0 °F 94% 30.06 in 6.2 mi NNE 15.0 mph - N/A Rain Light Rain
2:30 PM 60.8 °F 59.0 °F 94% 30.06 in 5.6 mi NNE 13.8 mph - N/A Rain Light Rain
3:00 PM 60.8 °F 59.0 °F 94% 30.06 in 5.6 mi NNE 13.8 mph - N/A Rain Light Rain
3:30 PM 60.8 °F 59.0 °F 94% 30.06 in 6.2 mi NNE 13.8 mph - N/A Rain Light Rain
4:00 PM 60.8 °F 59.0 °F 94% 30.09 in 6.2 mi NE 11.5 mph - N/A Rain Light Rain
4:30 PM 60.8 °F 59.0 °F 94% 30.09 in 5.6 mi NNE 13.8 mph - N/A Rain Light Rain
4:43 PM 60.8 °F 59.0 °F 94% 30.09 in 4.3 mi NNE 13.8 mph - N/A Rain Rain
4:47 PM 60.8 °F 60.8 °F 100% 30.09 in 3.1 mi NNE 15.0 mph - N/A Rain Rain
5:00 PM 60.8 °F 59.0 °F 94% 30.09 in 3.7 mi NNE 16.1 mph - N/A Rain Light Rain
5:22 PM 60.8 °F 59.0 °F 94% 30.09 in 5.0 mi NNE 12.7 mph - N/A Rain Light Rain
5:30 PM 60.8 °F 59.0 °F 94% 30.09 in 6.2 mi NNE 12.7 mph - N/A Rain Light Rain
6:00 PM 59.0 °F 59.0 °F 100% 30.09 in 5.0 mi NNE 9.2 mph - N/A Rain Rain
6:19 PM 60.8 °F 59.0 °F 94% 30.09 in 5.0 mi NNE 10.4 mph - N/A Rain Rain
6:30 PM 60.8 °F 59.0 °F 94% 30.12 in 6.2 mi NNE 10.4 mph - N/A Rain Light Rain
7:00 PM 60.8 °F 59.0 °F 94% 30.12 in 6.2 mi North 10.4 mph - N/A Rain Light Rain
7:03 PM 60.8 °F 59.0 °F 94% 30.12 in 5.0 mi North 10.4 mph - N/A Rain Rain
7:11 PM 60.8 °F 59.0 °F 94% 30.12 in 5.0 mi NNE 10.4 mph - N/A Rain Rain
7:30 PM 60.8 °F 59.0 °F 94% 30.12 in 6.2 mi North 12.7 mph - N/A Rain Light Rain
8:00 PM 60.8 °F 59.0 °F 94% 30.12 in 6.2 mi NNE 11.5 mph - N/A Rain Light Rain
8:30 PM 60.8 °F 59.0 °F 94% 30.15 in 6.2 mi NNE 9.2 mph - N/A Rain Light Rain
8:43 PM 60.8 °F 59.0 °F 94% 30.15 in 6.2 mi NNE 10.4 mph - N/A Rain Light Rain
9:00 PM 60.8 °F 59.0 °F 94% 30.12 in 6.2 mi NNE 10.4 mph - N/A Rain Light Rain
9:30 PM 60.8 °F 59.0 °F 94% 30.12 in 6.2 mi NNE 11.5 mph - N/A Rain Light Rain
10:00 PM 60.8 °F 59.0 °F 94% 30.12 in 6.2 mi NNE 12.7 mph - N/A Rain Light Rain
10:30 PM 60.8 °F 59.0 °F 94% 30.12 in 6.2 mi NNE 11.5 mph - N/A Rain Light Rain
11:00 PM 60.8 °F 59.0 °F 94% 30.12 in 6.2 mi NNE 13.8 mph - N/A Rain Light Rain
11:30 PM 60.8 °F 59.0 °F 94% 30.09 in 6.2 mi NNE 12.7 mph - N/A Rain Light Rain
11:40 PM 60.8 °F 59.0 °F 94% 30.09 in 5.6 mi NNE 12.7 mph - N/A Rain Light Rain